Weather History for Homer, AK

Change the Weather History Date:

Thursday, October 25, 2012

  Actual Average Record
Temperature  
Mean Temperature 29 °F -  
Max Temperature 39 °F 40 °F 50 °F (2013)
Min Temperature 19 °F 26 °F 10 °F (1966)
Degree Days  
Heating Degree Days 36    
Moisture  
Dew Point 18 °F    
Average Humidity 63    
Maximum Humidity 75    
Minimum Humidity 49    
Precipitation  
Precipitation 0.00 in - - ()
Sea Level Pressure  
Sea Level Pressure 30.46 in    
Wind  
Wind Speed 3 mph (NE)    
Max Wind Speed 10 mph    
Max Gust Speed -    
Visibility 10 miles    
Events      
Averages and records for this station are not official NWS values.
T = Trace of Precipitation, MM = Missing Value Source: NWS Daily Summary

Daily Weather History Graph

Daily Weather History Graph

Search for Another Location

Airport:

Trip Planner

Search our weather history database for the weather conditions in past years. The results will help you decide how hot, cold, wet, or windy it might be!

Date:

Astronomy

Oct. 25, 2012 Rise Set
Actual Time 9:10 AM AKDT 6:27 PM AKDT
Civil Twilight 8:27 AM AKDT 7:11 PM AKDT
Nautical Twilight 7:39 AM AKDT 7:59 PM AKDT
Astronomical Twilight 6:51 AM AKDT 8:46 PM AKDT
Moon 5:00 PM AKDT (10/25) 4:27 AM AKDT (10/25)
Length of Visible Light 10h 43m
Length of Day
9h 16m
Waxing Gibbous, 85% of the Moon is Illuminated
Oct 25
Waxing Gibbous
Oct 29
Full
Nov 6
Last Quarter
Nov 13
New
Nov 20
First Quarter

Hourly Weather History & Observations

Time (AKDT) Temp. Windchill Dew Point Humidity Pressure Visibility Wind Dir Wind Speed Gust Speed Precip Events Conditions
12:53 AM 24.1 °F - 14.0 °F 65% 30.42 in 10.0 mi Calm Calm - N/A   Clear
1:53 AM 25.0 °F 19.3 °F 14.0 °F 63% 30.43 in 10.0 mi NNE 4.6 mph - N/A   Clear
2:53 AM 21.9 °F 17.2 °F 14.0 °F 72% 30.44 in 10.0 mi NE 3.5 mph - N/A   Clear
3:53 AM 26.1 °F 20.5 °F 12.9 °F 58% 30.44 in 10.0 mi NE 4.6 mph - N/A   Clear
4:53 AM 21.0 °F 16.2 °F 12.0 °F 68% 30.44 in 10.0 mi North 3.5 mph - N/A   Clear
5:53 AM 19.9 °F - 12.0 °F 71% 30.44 in 10.0 mi Calm Calm - N/A   Clear
6:53 AM 25.0 °F 18.1 °F 12.9 °F 60% 30.45 in 10.0 mi NE 5.8 mph - N/A   Mostly Cloudy
7:53 AM 25.0 °F - 12.9 °F 60% 30.45 in 10.0 mi Calm Calm - N/A   Mostly Cloudy
8:53 AM 28.0 °F 20.8 °F 16.0 °F 61% 30.47 in 10.0 mi ENE 6.9 mph - N/A   Overcast
9:53 AM 28.0 °F 22.8 °F 19.0 °F 69% 30.48 in 10.0 mi NE 4.6 mph - N/A   Overcast
10:53 AM 32.0 °F 28.7 °F 18.0 °F 56% 30.48 in 10.0 mi ENE 3.5 mph - N/A   Clear
11:53 AM 36.0 °F 32.1 °F 23.0 °F 59% 30.48 in 10.0 mi ENE 4.6 mph - N/A   Clear
12:53 PM 37.0 °F 34.5 °F 23.0 °F 57% 30.49 in 10.0 mi East 3.5 mph - N/A   Clear
1:53 PM 39.0 °F - 21.0 °F 49% 30.48 in 10.0 mi Calm Calm - N/A   Partly Cloudy
2:53 PM 39.0 °F 32.3 °F 23.0 °F 53% 30.48 in 10.0 mi East 10.4 mph - N/A   Clear
3:53 PM 39.0 °F 32.8 °F 27.0 °F 62% 30.48 in 10.0 mi ENE 9.2 mph - N/A   Clear
4:53 PM 39.0 °F 32.8 °F 24.1 °F 55% 30.46 in 10.0 mi ENE 9.2 mph - N/A   Clear
5:53 PM 37.0 °F 31.6 °F 23.0 °F 57% 30.46 in 10.0 mi ENE 6.9 mph - N/A   Clear
6:53 PM 33.1 °F - 21.9 °F 64% 30.47 in 10.0 mi Calm Calm - N/A   Clear
7:53 PM 28.0 °F - 21.0 °F 75% 30.47 in 10.0 mi Calm Calm - N/A   Clear
8:53 PM 28.9 °F 23.9 °F 19.9 °F 69% 30.48 in 10.0 mi NE 4.6 mph - N/A   Clear
9:53 PM 28.9 °F 23.9 °F 19.0 °F 67% 30.47 in 10.0 mi ENE 4.6 mph - N/A   Clear
10:53 PM 27.0 °F 21.6 °F 19.0 °F 72% 30.47 in 10.0 mi NE 4.6 mph - N/A   Clear
11:53 PM 25.0 °F 20.7 °F 18.0 °F 75% 30.47 in 10.0 mi NNE 3.5 mph - N/A   Clear